TimeAKDT,TemperatureF,Dew PointF,Humidity,Sea Level PressureIn,VisibilityMPH,Wind Direction,Wind SpeedMPH,Gust SpeedMPH,PrecipitationIn,Events,Conditions,WindDirDegrees,DateUTC
12:16 AM,-9999,-9999,N/A,30.22,10.0,East,3.5,-,N/A,,Scattered Clouds,100,2013-07-05 08:16:00
12:36 AM,-9999,-9999,N/A,30.22,10.0,SE,3.5,-,N/A,,Partly Cloudy,140,2013-07-05 08:36:00
12:56 AM,-9999,-9999,N/A,30.22,10.0,SSE,3.5,-,N/A,,Partly Cloudy,150,2013-07-05 08:56:00
1:16 AM,-9999,-9999,N/A,30.22,10.0,SE,4.6,-,N/A,,Overcast,140,2013-07-05 09:16:00
1:36 AM,-9999,-9999,N/A,30.22,10.0,SE,4.6,-,N/A,,Overcast,140,2013-07-05 09:36:00
1:56 AM,-9999,-9999,N/A,30.22,10.0,SE,4.6,-,N/A,,Overcast,140,2013-07-05 09:56:00
2:16 AM,-9999,-9999,N/A,30.23,10.0,Calm,Calm,-,N/A,,Overcast,0,2013-07-05 10:16:00
2:36 AM,-9999,-9999,N/A,30.23,10.0,Calm,Calm,-,N/A,,Overcast,0,2013-07-05 10:36:00
2:56 AM,-9999,-9999,N/A,30.22,10.0,Calm,Calm,-,N/A,,Overcast,0,2013-07-05 10:56:00
3:16 AM,-9999,-9999,N/A,30.22,10.0,Calm,Calm,-,N/A,,Overcast,0,2013-07-05 11:16:00
3:36 AM,-9999,-9999,N/A,30.22,10.0,Calm,Calm,-,N/A,,Overcast,0,2013-07-05 11:36:00
3:56 AM,-9999,-9999,N/A,30.22,10.0,SSE,4.6,-,N/A,,Overcast,150,2013-07-05 11:56:00
4:16 AM,-9999,-9999,N/A,30.22,10.0,SSE,4.6,-,N/A,,Overcast,160,2013-07-05 12:16:00
4:36 AM,-9999,-9999,N/A,30.22,10.0,SE,4.6,-,N/A,,Overcast,140,2013-07-05 12:36:00
4:56 AM,-9999,-9999,N/A,30.22,10.0,SSE,3.5,-,N/A,,Overcast,160,2013-07-05 12:56:00
5:16 AM,-9999,-9999,N/A,30.22,10.0,Calm,Calm,-,N/A,,Overcast,0,2013-07-05 13:16:00
5:36 AM,-9999,-9999,N/A,30.22,10.0,South,3.5,-,N/A,,Overcast,190,2013-07-05 13:36:00
5:56 AM,-9999,-9999,N/A,30.22,10.0,Calm,Calm,-,N/A,,Overcast,0,2013-07-05 13:56:00
6:16 AM,-9999,-9999,N/A,30.22,10.0,SSW,3.5,-,N/A,,Overcast,200,2013-07-05 14:16:00
6:36 AM,-9999,-9999,N/A,30.22,10.0,SSW,5.8,-,N/A,,Overcast,210,2013-07-05 14:36:00
6:56 AM,-9999,-9999,N/A,30.22,10.0,SSW,5.8,-,N/A,,Overcast,210,2013-07-05 14:56:00
7:16 AM,-9999,-9999,N/A,30.22,10.0,South,5.8,-,N/A,,Mostly Cloudy,190,2013-07-05 15:16:00
7:36 AM,-9999,-9999,N/A,30.23,10.0,SSW,5.8,-,N/A,,Mostly Cloudy,210,2013-07-05 15:36:00
7:56 AM,-9999,-9999,N/A,30.23,10.0,South,3.5,-,N/A,,Overcast,190,2013-07-05 15:56:00
8:16 AM,-9999,-9999,N/A,30.23,10.0,South,4.6,-,N/A,,Mostly Cloudy,170,2013-07-05 16:16:00
8:36 AM,-9999,-9999,N/A,30.23,10.0,South,4.6,-,N/A,,Overcast,170,2013-07-05 16:36:00
8:56 AM,-9999,-9999,N/A,30.23,10.0,SSW,3.5,-,N/A,,Overcast,200,2013-07-05 16:56:00
9:16 AM,-9999,-9999,N/A,30.23,10.0,SSW,4.6,-,N/A,,Overcast,200,2013-07-05 17:16:00
9:36 AM,-9999,-9999,N/A,30.23,10.0,South,5.8,-,N/A,,Overcast,190,2013-07-05 17:36:00
9:56 AM,-9999,-9999,N/A,30.23,10.0,SW,4.6,-,N/A,,Overcast,220,2013-07-05 17:56:00
10:16 AM,-9999,-9999,N/A,30.23,10.0,SSW,4.6,-,N/A,,Overcast,210,2013-07-05 18:16:00
10:36 AM,-9999,-9999,N/A,30.23,10.0,South,3.5,-,N/A,,Overcast,180,2013-07-05 18:36:00
10:56 AM,-9999,-9999,N/A,30.23,10.0,South,4.6,-,N/A,,Overcast,180,2013-07-05 18:56:00
11:16 AM,-9999,-9999,N/A,30.22,8.0,SE,4.6,-,N/A,,Overcast,140,2013-07-05 19:16:00
11:36 AM,-9999,-9999,N/A,30.22,10.0,SSE,4.6,-,N/A,,Overcast,160,2013-07-05 19:36:00
11:56 AM,-9999,-9999,N/A,30.23,10.0,Calm,Calm,-,N/A,,Overcast,0,2013-07-05 19:56:00
12:16 PM,-9999,-9999,N/A,30.23,10.0,South,3.5,-,N/A,,Overcast,170,2013-07-05 20:16:00
12:36 PM,-9999,-9999,N/A,30.23,10.0,SSW,4.6,-,N/A,,Overcast,200,2013-07-05 20:36:00
12:56 PM,-9999,-9999,N/A,30.23,10.0,SW,3.5,-,N/A,,Overcast,220,2013-07-05 20:56:00
1:16 PM,-9999,-9999,N/A,30.23,10.0,SSW,5.8,-,N/A,,Overcast,210,2013-07-05 21:16:00
1:36 PM,-9999,-9999,N/A,30.23,10.0,South,5.8,-,N/A,,Overcast,190,2013-07-05 21:36:00
1:56 PM,-9999,-9999,N/A,30.23,10.0,SSW,6.9,-,N/A,,Overcast,210,2013-07-05 21:56:00
2:16 PM,-9999,-9999,N/A,30.23,10.0,WSW,3.5,-,N/A,,Overcast,240,2013-07-05 22:16:00
2:36 PM,57.2,50.0,77,30.23,10.0,SW,5.8,-,N/A,,Overcast,220,2013-07-05 22:36:00
2:56 PM,57.2,51.8,82,30.23,10.0,West,5.8,-,N/A,,Overcast,260,2013-07-05 22:56:00
3:16 PM,-9999,-9999,N/A,30.23,10.0,SW,5.8,-,N/A,,Overcast,230,2013-07-05 23:16:00
3:36 PM,-9999,-9999,N/A,30.23,10.0,SSW,4.6,-,N/A,,Overcast,210,2013-07-05 23:36:00
3:56 PM,-9999,-9999,N/A,30.23,10.0,West,4.6,-,N/A,,Overcast,270,2013-07-05 23:56:00
4:16 PM,-9999,-9999,N/A,30.22,10.0,SW,4.6,-,N/A,,Overcast,230,2013-07-06 00:16:00
4:36 PM,-9999,-9999,N/A,30.22,10.0,South,3.5,-,N/A,,Overcast,190,2013-07-06 00:36:00
4:56 PM,-9999,-9999,N/A,30.22,10.0,SSW,4.6,-,N/A,,Overcast,200,2013-07-06 00:56:00
5:16 PM,-9999,-9999,N/A,30.22,10.0,SSW,4.6,-,N/A,,Overcast,200,2013-07-06 01:16:00
5:36 PM,-9999,-9999,N/A,30.22,10.0,SSW,3.5,-,N/A,,Overcast,210,2013-07-06 01:36:00
5:56 PM,-9999,-9999,N/A,30.21,10.0,Calm,Calm,-,N/A,,Overcast,0,2013-07-06 01:56:00
6:16 PM,-9999,-9999,N/A,30.21,10.0,South,3.5,-,N/A,,Overcast,190,2013-07-06 02:16:00
6:36 PM,-9999,-9999,N/A,30.21,10.0,SSW,3.5,-,N/A,,Overcast,200,2013-07-06 02:36:00
6:56 PM,-9999,-9999,N/A,30.21,10.0,South,4.6,-,N/A,,Overcast,190,2013-07-06 02:56:00
7:16 PM,-9999,-9999,N/A,30.21,10.0,WSW,3.5,-,N/A,,Overcast,250,2013-07-06 03:16:00
7:36 PM,-9999,-9999,N/A,30.21,10.0,WSW,4.6,-,N/A,,Overcast,240,2013-07-06 03:36:00
7:56 PM,-9999,-9999,N/A,30.21,10.0,SW,5.8,-,N/A,,Overcast,220,2013-07-06 03:56:00
8:16 PM,-9999,-9999,N/A,30.21,10.0,SSW,4.6,-,N/A,,Overcast,200,2013-07-06 04:16:00
8:36 PM,-9999,-9999,N/A,30.21,10.0,SSW,6.9,-,N/A,,Overcast,210,2013-07-06 04:36:00
8:56 PM,-9999,-9999,N/A,30.21,10.0,SSW,5.8,-,N/A,,Overcast,210,2013-07-06 04:56:00
9:16 PM,-9999,-9999,N/A,30.21,10.0,WSW,5.8,-,N/A,,Overcast,250,2013-07-06 05:16:00
9:36 PM,-9999,-9999,N/A,30.21,10.0,West,3.5,-,N/A,,Overcast,280,2013-07-06 05:36:00
9:56 PM,-9999,-9999,N/A,30.21,10.0,West,4.6,-,N/A,,Overcast,280,2013-07-06 05:56:00
10:16 PM,-9999,-9999,N/A,30.21,10.0,Calm,Calm,-,N/A,,Overcast,0,2013-07-06 06:16:00
10:36 PM,53.6,48.2,82,30.21,10.0,Calm,Calm,-,N/A,,Overcast,0,2013-07-06 06:36:00
10:56 PM,53.6,48.2,82,30.21,10.0,Calm,Calm,-,N/A,,Overcast,0,2013-07-06 06:56:00
11:16 PM,53.6,50.0,88,30.21,10.0,Calm,Calm,-,N/A,,Overcast,0,2013-07-06 07:16:00
11:36 PM,53.6,48.2,82,30.21,10.0,SSE,4.6,-,N/A,,Overcast,160,2013-07-06 07:36:00
11:56 PM,53.6,48.2,82,30.21,10.0,SSE,3.5,-,N/A,,Overcast,160,2013-07-06 07:56:00